Vorticity
nan nan nan nan nan nan nan nan nan nan nan nan nan nan nan nan nan nan nan nan nan nan nan nan nan nan nan nan nan nan nan nan nan nan nan nan nan nan nan nan nan nan nan nan nan nan nan nan nan
nan 5 4 6 6 6 7 10 10 11 8 3 3 1 6 9 14 12 11 12 5 4 6 9 8 7 7 5 6 5 5 5 5 4 5 5 6 5 5 5 4 5 6 8 8 6 5 5 nan
nan 2 6 9 9 4 13 9 5 5 5 1 1 2 6 11 9 6 10 8 3 5 8 11 8 6 6 5 5 5 5 5 4 4 4 5 5 4 4 5 4 5 6 7 8 7 6 6 nan
nan 9 8 10 10 7 11 8 3 2 2 8 4 4 10 10 9 15 9 3 5 5 8 9 8 7 6 5 5 6 5 5 5 5 5 5 4 4 4 4 4 4 5 6 6 6 6 7 nan
nan 7 6 6 4 12 11 8 -2 2 8 9 7 6 6 15 19 12 5 3 3 4 6 7 8 7 6 6 6 6 6 6 5 4 5 5 5 5 5 5 5 5 6 7 6 6 6 7 nan
nan 7 3 5 7 7 9 7 5 8 7 2 9 8 11 14 6 4 4 6 6 5 5 7 6 6 7 7 6 6 5 5 5 5 5 4 6 7 5 5 5 7 6 6 7 7 7 8 nan
nan 9 7 5 7 7 10 6 8 6 0 6 5 2 8 9 8 6 5 5 6 5 6 6 6 8 6 4 5 6 5 5 5 4 4 5 5 5 5 6 5 6 6 4 5 7 8 8 nan
nan 5 9 9 7 8 6 12 10 2 6 8 0 5 11 12 9 5 5 6 5 4 5 6 6 6 6 9 8 5 6 6 5 5 5 5 5 4 4 5 5 6 5 5 5 5 7 7 nan
nan 5 6 4 6 12 10 6 5 12 12 4 10 14 17 10 3 3 4 5 5 5 5 5 7 7 6 8 8 9 7 6 5 6 5 3 4 8 8 6 5 5 6 6 6 6 6 8 nan
nan 8 7 1 2 12 10 5 4 7 2 9 17 14 13 7 3 4 3 4 5 6 6 6 6 5 5 6 6 6 6 6 7 6 6 7 7 8 8 9 9 8 6 8 8 8 8 5 nan
nan 5 8 6 11 13 7 -0 7 4 6 16 9 5 3 3 4 5 7 6 6 3 4 6 6 7 5 5 5 6 8 7 7 7 7 6 7 6 7 10 10 12 9 8 9 8 8 7 nan
nan 8 5 8 15 10 8 2 8 4 19 15 8 3 4 5 4 4 7 6 7 7 6 5 6 7 5 7 8 7 6 7 7 9 7 7 7 7 9 9 8 7 10 8 7 8 8 7 nan
nan 11 7 10 9 5 10 7 6 12 19 12 7 5 6 4 4 6 7 6 8 8 8 6 8 8 9 7 6 7 7 6 7 8 8 7 7 7 9 8 9 8 8 8 8 8 8 8 nan
nan 8 8 10 9 8 10 12 7 15 13 9 4 3 6 6 3 4 6 9 7 6 9 9 5 8 11 8 10 10 10 11 9 7 9 7 6 8 7 8 7 7 8 8 9 8 8 8 nan
nan 8 8 8 13 9 6 6 12 13 7 6 4 4 6 6 5 8 7 7 7 6 7 9 10 7 5 7 10 9 8 10 10 12 11 6 6 8 7 6 7 7 8 9 7 7 7 7 nan
nan 8 9 10 8 7 5 6 14 14 6 5 5 4 6 9 5 7 13 7 6 10 13 8 6 7 4 5 4 6 6 7 8 10 10 11 10 7 7 6 7 8 8 7 7 8 8 8 nan
nan 10 3 15 13 6 6 10 14 12 8 6 6 6 7 6 6 9 11 10 13 12 8 3 3 5 8 7 4 5 6 9 8 9 13 11 11 7 6 7 8 9 8 8 8 7 8 7 nan
nan 9 12 12 8 9 6 11 11 15 11 7 5 7 10 10 6 7 6 10 12 7 5 7 8 5 5 8 10 6 8 7 8 8 12 11 11 10 8 8 9 9 9 8 7 8 7 7 nan
nan 6 6 12 12 9 7 9 11 9 8 10 10 10 10 7 9 11 8 7 8 7 6 8 7 5 6 5 6 10 9 9 8 5 7 13 11 9 8 9 9 9 9 10 8 8 8 7 nan
nan 7 8 6 10 11 11 8 14 12 13 8 7 8 5 8 12 8 11 10 9 5 5 8 6 5 6 9 9 9 7 8 6 4 8 14 11 9 9 8 9 8 9 10 10 9 8 11 nan
nan 9 10 11 7 8 10 6 10 9 16 13 9 10 9 8 6 6 7 9 10 8 8 9 5 4 7 7 8 7 9 8 7 10 12 11 9 10 11 10 10 10 10 8 8 10 9 8 nan
nan 10 6 11 12 10 5 11 3 15 21 10 8 9 6 6 7 7 7 9 10 10 9 9 8 6 6 7 6 9 9 6 5 8 9 11 11 9 7 7 9 11 10 10 9 9 8 8 nan
nan 7 10 10 8 6 6 17 6 9 10 14 14 10 8 11 10 7 6 10 11 10 9 8 7 5 7 8 7 6 5 7 9 10 11 9 6 5 7 8 9 10 10 10 9 9 9 7 nan
nan 7 10 12 8 8 14 5 8 10 6 8 10 9 14 12 8 6 9 11 8 10 10 9 7 7 6 6 6 6 8 11 11 9 9 7 7 6 6 9 11 11 10 12 11 12 11 9 nan
nan 7 8 6 13 8 7 9 9 8 12 10 8 10 12 10 7 7 8 7 8 10 10 9 9 10 9 8 11 11 12 10 9 8 7 8 8 8 8 10 11 12 12 13 12 12 12 11 nan
nan 8 7 9 6 8 7 10 9 10 16 19 14 14 9 8 9 9 8 8 9 8 6 9 10 11 12 11 10 13 11 8 8 9 8 7 9 8 9 10 10 10 13 11 12 11 11 13 nan
nan 10 9 6 7 11 8 7 8 8 8 13 19 22 17 10 9 6 7 9 9 9 7 7 7 8 9 9 8 8 8 10 9 8 8 8 9 9 9 10 10 10 10 11 12 11 12 14 nan
nan 2 7 10 13 6 12 11 3 5 10 5 4 11 7 11 17 10 8 9 9 9 7 9 9 8 7 7 8 8 8 8 8 8 7 9 10 9 9 10 9 10 9 10 11 10 11 12 nan
nan 7 13 16 8 9 9 5 12 9 8 8 5 3 3 7 12 14 7 9 11 10 10 9 9 9 10 9 8 8 9 9 8 7 7 9 9 8 10 10 9 9 9 9 10 10 10 10 nan
nan nan nan nan nan nan nan nan nan nan nan nan nan nan nan nan nan nan nan nan nan nan nan nan nan nan nan nan nan nan nan nan nan nan nan nan nan nan nan nan nan nan nan nan nan nan nan nan nan
CAPE
851 438 835 1518 164 0 0 0 0 0 0 111 189 228 267 202 188 266 549 758 1225 1974 2418 3007 3462 3788 3483 2958 2807 2503 2453 2491 2576 2688 2492 2505 2623 2344 2423 2423 2278 2156 2012 1808 1918 1953 1824 1658 1703
15 50 833 541 3 0 0 0 11 16 1 220 409 674 638 884 1139 852 827 998 1596 1900 2155 2771 3434 3611 3498 3257 3152 2887 2533 2534 2606 2576 2606 2457 2540 2339 2223 2296 2327 2316 2095 2000 2066 2050 1873 1573 1859
0 304 747 370 0 0 0 0 0 0 160 222 431 582 642 946 1039 784 807 1014 1432 1927 2248 2648 3636 3564 3027 3190 3331 3230 3077 2580 2532 2542 2672 2542 2414 2381 2152 2067 2277 2228 2177 2096 2174 2032 1949 1672 1784
3 25 10 20 0 0 0 0 0 11 1 166 481 553 455 814 775 820 904 1092 1543 2023 2528 3245 3508 3241 3061 3121 3228 3149 3063 2930 2660 2595 2715 2526 2520 2319 2193 2170 2202 2078 1949 2018 2026 2025 1738 1690 1580
45 7 6 0 0 0 0 55 79 92 283 461 540 567 519 829 910 835 807 1220 1552 2177 2460 2757 3402 3539 3460 3386 3214 3133 3042 2802 2676 2655 2826 2354 2385 2514 2457 2254 2113 1994 1940 2107 2043 2138 1918 1454 1602
4 1 25 5 19 0 0 25 263 312 594 702 537 466 424 873 950 811 1241 1335 1486 2049 2318 2513 3158 3415 3397 3045 2880 2808 2751 2742 2693 2548 2304 2345 2488 2538 2418 2189 1985 1856 1790 1958 1860 2002 1967 1390 1496
0 20 0 16 41 20 0 0 527 594 737 651 620 439 354 518 772 1313 1354 1349 1416 1732 1847 2139 2378 2393 2736 2793 2773 2759 2800 2705 2549 2460 2527 2587 2532 2280 2275 2343 2215 1953 1815 1815 1057 1590 1788 1478 1404
13 0 0 12 7 5 0 0 494 638 804 790 661 546 489 1146 1428 1187 1041 917 1044 1297 1615 1643 1584 1633 1996 2263 2795 2815 2807 2387 2306 2340 2690 2600 2413 2298 2291 2891 2786 2087 1854 1675 1415 1514 1776 1758 1448
0 1 0 3 13 5 66 206 466 778 763 931 846 669 611 1546 1371 961 609 833 921 1102 1136 1285 1356 1492 1572 1825 2066 2885 2351 2302 2397 2434 2560 2540 1918 2094 2229 2258 2295 2193 1867 1717 1682 1644 1882 2043 1130
0 0 4 2 0 1 149 484 411 874 1084 1074 939 864 1001 1496 1244 1001 811 876 963 913 1030 1135 1117 1225 1426 1958 1732 1997 1552 1626 1741 1707 1443 1567 1551 1568 1854 2180 1862 2153 2128 1890 1738 2241 1817 1711 1054
0 0 1 13 5 0 72 305 286 668 1051 1028 955 1090 1009 1157 1363 1283 1189 1064 1023 928 1034 1027 1000 1042 1354 1822 1532 1547 1445 1374 1372 1358 1294 1228 1328 1133 1520 1618 1526 1641 2091 1492 1966 1925 1632 1147 958
0 0 0 0 0 0 98 229 345 158 546 1121 989 1086 1165 1111 1169 1211 1415 1331 1196 1115 1182 1179 1136 1297 1472 1725 1598 1517 1477 1420 1455 1508 1479 1377 1259 1111 957 1431 1273 1169 1252 1297 1228 1260 1256 1022 434
0 0 0 0 0 0 79 109 443 519 260 1260 1133 1064 1120 1196 1008 959 1073 1218 1295 1341 1389 1378 1361 1550 1495 1780 1606 1358 1495 1482 1352 1418 1324 1320 1062 886 659 787 879 952 789 931 815 985 849 775 713
0 0 0 0 0 0 25 137 623 567 1157 1234 1241 1140 1086 1249 1115 867 814 1047 1391 1370 1456 1460 1497 820 698 581 675 782 958 968 1043 1226 1147 1113 914 819 665 286 190 303 502 766 565 714 544 527 242
0 0 0 0 0 8 95 240 587 699 1078 1274 1287 1274 1211 1071 939 821 947 1129 1285 1302 1389 702 28 7 4 2 3 3 8 91 581 698 764 1000 989 866 756 266 107 40 22 324 190 186 104 4 83
0 0 0 0 0 0 0 156 46 819 1258 1319 1339 1381 1334 1309 1101 831 972 1205 1315 1187 739 455 402 338 343 71 7 0 0 0 0 335 480 436 978 980 802 698 338 85 0 89 54 38 12 0 0
0 0 0 0 0 0 0 0 1 1011 1433 1339 1368 1400 1374 1399 1146 983 1029 1437 1321 709 404 120 42 143 132 8 0 0 0 0 10 142 710 1106 1367 1205 862 656 804 138 25 5 13 0 0 0 0
0 0 0 0 0 0 0 37 80 92 1172 1501 1493 1582 1517 1317 1201 1069 1176 1504 1124 551 395 311 1 17 13 1 0 0 0 10 52 268 625 989 1432 1018 598 458 429 271 164 24 0 23 0 0 0
0 0 0 0 0 0 0 0 148 53 481 1059 1314 1541 1423 1302 1295 1326 1169 1490 960 634 621 59 15 0 0 0 0 0 0 17 0 167 240 747 720 472 588 514 462 315 223 253 13 0 42 83 61
0 0 0 0 0 0 0 0 0 303 754 1159 1416 1478 1368 1501 1557 1538 1673 2256 1309 925 691 97 0 0 0 0 0 6 17 13 29 70 47 639 953 693 630 506 383 318 174 109 47 108 18 64 0
0 0 0 0 0 0 0 0 0 0 739 1180 1497 1647 1500 1693 1763 1707 1903 2342 1941 1051 589 170 0 0 0 0 0 0 1 9 39 81 376 662 454 311 305 176 130 114 129 185 49 20 0 12 0
0 0 0 0 0 0 0 0 0 0 377 1380 1664 1855 1888 1901 1853 1905 1857 1693 1855 1034 505 102 0 0 0 0 0 0 0 1 161 294 269 215 218 219 297 345 251 159 121 171 62 18 0 0 2
0 0 0 0 0 0 0 0 0 0 127 975 1853 1912 2003 2037 2056 1986 1700 1529 2271 1283 504 22 0 0 18 18 2 0 0 0 77 187 7 120 177 160 73 60 144 234 206 174 156 79 8 0 0
0 0 0 0 0 0 0 0 0 0 85 180 1101 1465 1956 2198 2061 1818 1560 2269 2246 2107 920 371 144 24 35 182 256 195 184 410 189 138 54 0 8 0 0 1 8 99 189 229 248 105 65 25 1
0 0 0 0 0 0 0 0 0 0 64 239 112 111 2256 2197 1948 1721 1632 1905 1883 2190 2206 1798 1207 934 423 207 487 727 680 202 142 97 1 0 0 0 0 1 36 29 14 178 218 124 106 35 16
0 0 0 0 0 0 0 0 1 0 18 48 225 1350 2368 2084 1722 1750 1534 1564 1816 2160 2179 2039 1796 1435 1073 994 748 469 416 215 137 22 0 0 0 18 10 8 3 9 0 1 40 103 104 107 12
0 0 0 0 0 0 0 12 7 6 21 243 850 1921 2167 1778 1595 1641 1398 1323 1580 1997 2054 1789 1739 1561 1011 793 532 415 269 156 122 17 0 0 15 72 0 0 0 0 0 1 3 15 31 20 4
0 0 0 0 0 0 0 62 38 16 236 415 709 775 521 885 1346 1268 1196 1138 1238 1836 1870 1791 1576 953 672 593 589 472 293 204 94 0 0 0 7 0 0 0 0 0 0 0 0 2 1 1 1
0 0 0 0 0 0 0 5 87 73 228 247 313 433 118 210 903 982 1152 991 1102 1587 1939 2030 1302 1099 648 688 584 409 216 216 57 0 0 5 0 0 0 7 0 0 0 0 0 0 0 0 0
0 0 0 0 0 0 0 0 76 83 330 77 132 150 233 93 449 1246 987 1104 857 905 1075 667 323 361 583 568 537 371 156 178 60 0 0 7 0 0 0 0 0 0 0 0 0 0 1 1 0